Pagrindinis puslapis
METAR-TAF:

METAR-TAF

Oro uostai :

Perry Lefors Field

Pampa, Teksasas, Jungtinės Amerikos Valstijos

platuma: 35-36-46N, ilguma: 100-59-46W, Aukštis: 989 m

Dabartinis oras

Ataskaita buvo paskelbta 25 minutes, ne 11:30 UTC
Vėjas 10 kt iš Pietų
Temperatūra 14°C
Drėgmė 44%
Slėgis 1021 hPa
Matomumas: 16.1 km
Giedras dangus

METAR: KPPA 231130Z AUTO 17010KT 10SM CLR 14/02 A3014 RMK AO2 T01360019

Laikas: 06:55 (11:55 UTC)


TAF: trūkstamas

Orai ataskaitas ir orų prognozės (METAR, TAF).

turimą stotys yra geltonos ir raudonos taškus žemėlapyje.

Perkelti pele per norėdami pamatyti stoties vardą.

Tada spustelėkite, norėdami matyti oro stebėjimo ir prognozės.

Norėdami pakeisti žemėlapį: spustelėkite ant žalios mygtukų su juodo kryžiaus žemyn,; žalią mygtuką su brūkšneliu, jei norite nutolinti; arba žalių rodyklių gretimoms žemėlapius.


METAR-TAF: